Showing default

COSMOS 2270, 23001

Orbit data source: Space-Track

COSMOS 2270, 23001 is a payload satellite owned by VKS (CIS) in LEO that was launched on Sat, 12 Feb 1994 UTC via a TSIKLON-3 launch vehicle from the Plesetsk Missile And Space Complex (PKMTR). Payload-class satellites include a variety of spacecraft equipped with specific instruments for various scientific and technological missions. These include communications satellites like Starlink; space stations such as the ISS; scientific satellites like the Hubble; Earth observation satellites from companies like Planet Labs, Umbra, and HawkEye 360; GPS; miniature CubeSats for education and research; and military/defense satellites.

Loading next visibility...
Identifier
23001, 1994-011C
Orbit
LEO
Country
Flag of CISCIS
Related business
Manufacturer
NPO PM
Mission
Defense Communications
Bus & Motor
STRELA-3, Unknown motor
Mass
225 kg wet, 225 kg dry
Launch date (UTC)
1994-02-12 (32 years ago)
Launch vehicle
TSIKLON-3
Launch site
Plesetsk Missile And Space Complex (PKMTR)
Object type
Payload
Rocket body
Debris
Shape & HBR
Cyl, 0.8 m
Radar Cross Section
1.257 m², Large (>1 m²)

Expand to show TLE details & history
Last TLE update: 1 day ago

TLE from 1 day ago
0 COSMOS 2270
1 23001U 94011C   25257.44131536  .00000005  00000-0 -30536-4 0  9996
2 23001  82.5730 130.1100 0008270  83.0981  91.0126 12.62925752455841
Epoch: 2025-09-14T10:35Z
TLE epoch observation values (Epoch: 2025-09-14T10:35:29.647Z)
Latitude
5.66992°
Longitude
156.8383°
Altitude
1,413.186 km
Speed
7.154 km/s
True Right ascension
20h 37m 29s
True Declination
5° 38' 21"
Sunlit
Object was in full shadow at epoch
Visualization orbit readout
Latitude
Unknown
Longitude
Unknown
Altitude
Unknown
Speed
Unknown
Apparent Right ascension
Unknown
Apparent Declination
Unknown
Sunlit
N/A
Visualization observer readout
Local Sidereal Time
03:54:35
Azimuth
Unknown
Elevation
Unknown
Doppler factor
Unknown
Orbital elements
Apogee altitude
1,414.651 km
Perigee altitude
1,401.772 km
Semi-major axis
7,786.349 km
Eccentricity
0.00083
Inclination
82.573°
RAAN
130.11°
Arg. of periapsis
83.0981°
True anomaly
91.10735°
Mean anomaly
91.0126°
Eccentric anomaly
91.05998°
Mean motion
3.15895 °/min
Orbital period
113.96 mins
BSTAR
-0.000030536
Loading maneuver chart data...
Computing Atmospheric mass density...
Loading historical data...
Loading historical data...
Loading historical data...
Loading historical data...
Loading historical data...
Loading historical data...
Loading historical data...

Documentation

Showing up to 5 results
|